#timestamp,LO_Frequency,Hit,StdDev 
1645171215.0,286046998.3,N
1645171215.9,286046998.3,N
1645171235.7,286046999.3,N
1645171255.6,286046998.4,N
1645171275.4,286046998.6,N
1645171295.3,286046999.4,N
1645171315.1,286046998.8,N
1645171335.8,286046996.6,N
1645171355.7,286046999.6,N
1645171375.5,286046996.6,N
1645171395.4,286046999.4,N
1645171415.2,286046998.9,N
1645171435.0,286046996.6,N
1645171435.9,286046996.6,N
1645171455.8,286046997.9,N
1645171475.6,286046997.3,N
1645171495.4,286046995.0,Y
1645171515.3,286046999.4,P
1645171535.1,286046999.4,N
1645171555.9,286046999.6,N
1645171575.7,286046996.8,Y
1645171595.5,286046999.3,P
1645171615.4,286046999.3,P
1645171635.2,286046999.6,P
1645171655.1,286046999.1,Y
1645171656.0,286046999.1,P
1645171675.8,286046999.3,P
1645171695.6,286046997.1,P
1645171715.5,286046998.9,N
1645171735.3,286046998.4,N
1645171755.1,286046998.4,N
1645171775.9,286046999.0,N
1645171795.7,286046999.0,N
1645171815.6,286046999.0,N
1645171835.4,286046997.3,Y
1645171855.2,286046998.1,P
1645171875.1,286047000.8,N
1645171876.0,286047000.8,N
1645171895.8,286047000.5,N
1645171915.6,286047001.2,N
1645171935.5,286046999.9,N
1645171955.3,286047000.1,N
1645171975.2,286047001.0,N
1645171995.9,286047001.2,N
1645172015.7,286046999.9,N
1645172035.6,286047011.9,Y
1645172055.4,286046998.6,P
1645172075.3,286046999.0,N
1645172095.1,286047001.2,N
1645172096.0,286047001.2,N
1645172115.8,286046998.3,N
1645172135.7,286047000.8,N
1645172155.5,286047000.8,N
1645172175.3,286047000.9,N
1645172195.2,286047000.4,N
1645172215.0,286046999.8,N
1645172215.9,286046999.8,N
1645172235.8,286047000.2,N
1645172255.6,286047000.6,N
1645172275.4,286047000.0,N
1645172295.3,286046998.7,N
1645172315.1,286046998.7,N
1645172335.8,286046996.9,Y
1645172355.7,286046998.2,P
1645172375.5,286046998.5,N
1645172395.4,286047000.6,N
1645172415.2,286047000.3,N
1645172435.0,286047000.5,N
1645172435.9,286047000.5,N
1645172455.8,286047000.8,N
1645172475.6,286046998.1,N
1645172495.4,286046998.6,N
1645172515.3,286046998.4,N
1645172535.1,286047000.6,N
1645172555.9,286047000.0,N
1645172575.7,286046998.8,N
1645172595.5,286046997.1,N
1645172615.4,286046997.3,N
1645172635.2,286046996.7,N
1645172655.0,286046996.7,N
1645172655.9,286046996.7,N
1645172675.8,286046999.6,N
1645172695.6,286046997.7,N
1645172715.5,286046997.1,N
1645172735.3,286046996.6,N
1645172755.1,286046999.0,N
1645172775.9,286046999.1,N
1645172795.7,286046999.1,N
1645172815.5,286047001.0,N
1645172835.4,286046998.9,N
1645172855.2,286046996.7,N
1645172875.1,286046995.4,Y
1645172876.0,286046995.4,P
1645172895.8,286046996.8,N
1645172915.6,286046999.6,N
1645172935.5,286046997.0,N
1645172955.3,286046999.6,N
1645172975.1,286046998.3,N
1645172995.9,286046998.1,N
1645173015.7,286046998.3,N
1645173035.6,286047001.1,N
1645173055.4,286047001.1,N
1645173075.2,286047002.7,N
1645173095.1,286047002.3,N
1645173096.0,286047002.3,N
1645173115.8,286047002.4,N
1645173135.6,286047000.0,N
1645173155.5,286046999.7,N
1645173175.3,286046999.7,N
1645173195.2,286047000.3,N
1645173215.9,286047000.8,N
1645173235.7,286047000.7,N
1645173255.6,286046998.5,N
1645173275.4,286046998.8,N
1645173295.2,286047001.1,N
1645173315.1,286046999.6,N
1645173316.0,286046999.6,N
1645173335.8,286046996.9,N
1645173355.7,286047000.9,N
1645173375.5,286046999.8,N
1645173395.3,286047002.3,N
1645173415.2,286047001.6,N
1645173435.0,286047003.9,N
1645173435.9,286047003.9,N
1645173455.8,286047008.6,Y
1645173475.6,286047017.7,P
1645173495.4,286047021.4,N
1645173515.3,286047026.6,N
1645173535.1,286047023.7,N
1645173555.9,286047025.3,N
1645173575.7,286047026.5,N
1645173595.5,286047023.7,N
1645173615.4,286047026.8,Y
1645173635.2,286047005.6,P
1645173655.0,286047007.4,N
1645173655.9,286047007.4,N
1645173675.8,286047007.9,N
1645173695.6,286047013.4,N
1645173715.5,286047016.8,Y
1645173735.3,286047006.9,P
1645173755.1,286047008.0,P
1645173775.9,286047012.3,P
1645173795.7,286047012.1,Y
1645173815.5,286047005.5,P
1645173835.4,286047006.7,P
1645173855.2,286047008.0,P
1645173875.1,286047013.9,Y
1645173876.0,286047013.9,P
1645173895.8,286047006.8,N
1645173915.6,286047010.5,P
1645173935.5,286047009.3,Y
1645173955.3,286047001.5,P
1645173975.2,286047003.6,N
1645173995.9,286047006.0,N
1645174015.7,286047003.0,N
1645174035.6,286047005.5,N
1645174055.4,286047004.9,N
1645174075.2,286047008.3,Y
1645174095.1,286047007.3,P
1645174096.0,286047007.3,P
1645174115.8,286047010.6,P
1645174135.7,286047013.8,Y
1645174155.5,286047007.0,P
1645174175.3,286047009.4,P
1645174195.2,286047014.5,P
1645174215.0,286047015.4,Y
1645174215.9,286047015.4,P
1645174235.8,286047009.1,P
1645174255.6,286047010.7,P
1645174275.4,286047012.0,Y
1645174295.3,286047000.3,P
1645174315.1,286047002.3,N
1645174335.8,286047000.1,N
1645174355.7,286047000.2,N
1645174375.5,286047001.5,N
1645174395.4,286047002.0,N
1645174415.2,286047005.8,N
1645174435.0,286047010.5,N
1645174435.9,286047010.5,N
1645174455.8,286047012.6,N
1645174475.6,286047016.4,Y
1645174495.5,286047012.5,P
1645174515.3,286047009.7,N
1645174535.1,286047012.3,P
1645174555.9,286047007.8,N
1645174575.7,286047008.5,Y
1645174595.5,286047000.2,P
1645174615.4,286047000.5,N
1645174635.2,286047002.3,N
1645174655.1,286047001.7,N
1645174656.0,286047001.7,N
1645174675.8,286047001.8,N
1645174695.6,286047004.8,N
1645174715.5,286047009.2,Y
1645174735.3,286047003.7,P
1645174755.2,286047007.0,P
1645174775.9,286047008.7,P
1645174795.7,286047008.6,Y
